Погода в Саскылахе

Погода в Саскылахе : погода сейчас, прогноз погоды и архив. Всё, что Вы хотите узнать о погоде в Саскылахе!

Хотите узнать прогноз погоды в Саскылахе? Тогда Вам сюда: Погода в Саскылахе

Поиск расширенной информации на нашем сайте:

Другие новости

Новости СМИ2

Главная страница сайта

Новости сайта

02.10.2013

Напоминаем, что на нашем новом сайте вы можете получить высокодетализированные прогнозы погоды по пунктам России, СНГ и мира (включающие важные для авиации метеовеличины, такие как направление и скорость ветра, видимость, явления погоды, количество и форма облачности, нижняя и верхняя граница облачности), а также ознакомиться с разнообразными материалами по авиационной метеорологии и подборкой полезных ссылок на эту тему.

Сайт Метеоцентр.Азия посвящён разработке технологий оптимизации авиаметеорологического обслуживания, включая проектирование и перспективное создание нескольких автоматизированных авиаметеорологических систем:
- система выпуска высокодетальных прогностических карт явлений погоды для нижнего воздушного пространства по России и ближнему зарубежью;
- система верификации прогнозов TAF (выпускаемых синоптиками официальных АМСГ РФ и ближнего зарубежья) и AUTOTAF (выпускаемых сайтом Метеоцентр.Азия) - выявление ошибок, онлайн-сопоставление с фактической погодой METAR, автоматическое внесение коррективов в прогнозы при резком отклонении фактической погоды от прогноза, подсчёт оправдываемости прогнозов по элементам и в целом;
- система обработки, анализа и отображения авиаметеорологической информации для применения провайдерами метеорологической информации.

Рекомендуем: разместить услугу

Погода в Саскылахе - сегодня

Время (UTC), дата Ветер
(°,м/с) 
Видим.   Явления Облачность Т
(°С)
Тd
(°С)
f(%) Тe
(°С)
Pmin
(гПа)
dP
(гПа)
Po
(мм)
O2
(г/м3)
Тmin Tmax R s Состояние
почвы
12 16.02.17 140 (ЮВ) н/о    н/о 
-28.8 -31.9 75 -34  1010.9  -0.7  757  343    -27.6       
15 16.02.17 160 (Ю) н/о    н/о 
-30.8 -34 73 -37  1010.1  756  345           
18 16.02.17 150 (ЮВ) н/о    н/о 
-31.6 -34.8 73 -37  1009.1  -1  755  346           
21 16.02.17 140 (ЮВ) н/о    н/о 
-32.9 -36.2 72 -39  1008.1  -1  754  348           
00 17.02.17 130 (ЮВ) 20000 м    ясно 
-34.7 -38.3 70 -36  1007.9  -1.4  754  350  -34.8      49  неравномерный
сухой снег
100% 
03 17.02.17 150 (ЮВ) 20000 м    ясно 
-33.5 -37.1 70 -34  1006.9  -1  753  348           
06 17.02.17 150 (ЮВ) 20000 м    6/0 средняя 
[As trans]
-32.7 -36.5 69 -34  1005.9  -1  752  346           
09 17.02.17 тихо ()   20000 м    10/0 средняя 
[Ac und]
-32.2 -35.7 71 -32  1005.9  752  346           
12 17.02.17 тихо ()   н/о    н/о 
-31.3 -34.6 72 -31  1004.6  752  344    -31       
15 17.02.17 310 (СЗ) н/о    н/о 
-30.6 -33.8 73 -31  1004.2  752  343           
18 17.02.17 тихо ()   н/о    н/о 
-30.4 -33.5 74 -30  1004  -0.2  751  343           
21 17.02.17 150 (ЮВ) н/о    н/о 
-31.2 -34.3 74 -35  1004.2  0.2  751  344           
00 18.02.17 140 (ЮВ) 20000 м    9/0 средняя 
[Ac und]
-32.8 -36 73 -34  1005.3  752  346  -32.9      49  неравномерный
сухой снег
100% 
03 18.02.17 160 (Ю) 20000 м    ясно 
-33.1 -36.6 71 -34  1004.1  -1.2  751  346           
06 18.02.17 тихо ()   20000 м    ясно 
-31.9 -35.9 68 -32  1003.1  -1  750  344           
09 18.02.17 тихо ()   20000 м    ясно 
-35 -38.3 72 -35  1003.1  750  349           
12 18.02.17 160 (Ю) н/о    н/о 
-36.4 -39.9 70 -41  1002.9  -0.3  750  351    -31.8       
15 18.02.17 200 (Ю) н/о    н/о 
-37.3 -41 68 -38  1002.2  750  352           
18 18.02.17 210 (ЮЗ) н/о    н/о 
-38.1 -42 67 -39  1001.4  -0.9  749  353           
21 18.02.17 180 (Ю) н/о    н/о 
-39 -43.2 64 -40  1001.2  0.1  749  354           
00 19.02.17 130 (ЮВ) 20000 м    ясно 
-37.2 -41.1 67 -38  1002.2  -0.5  749  352  -37.3      49  неравномерный
сухой снег
100% 
03 19.02.17 220 (ЮЗ) 20000 м    ясно 
-35.3 -39.1 68 -36  1001.7  743  346           
06 19.02.17 130 (ЮВ) 20000 м    ясно 
-33 -36.6 70 -39  1001.7  749  345           
09 19.02.17 120 (ЮВ) 20000 м    ясно 
-33.5 -37 71 -38  1003.4  1.7  751  347           
12 19.02.17 140 (ЮВ) н/о    н/о 
-35.8 -39.4 69 -42  1004.3  1.3  752  351    -32.6       
Время (UTC), дата Ветер
(°,м/с) 
Видим.   Явления Облачность Т
(°С)
Тd
(°С)
f(%) Тe
(°С)
Pmin
(гПа)
dP
(гПа)
Po
(мм)
O2
(г/м3)
Тmin Tmax R s Состояние
почвы

Для получения пояснительной информации подведите курсор к названию столбца.

ПОГОДА в Саскылахе - архив

Всё, что Вы хотите узнать о погоде в Саскылахе - удобно и подробно!

Выберите нужную дату (начиная с 1 января 2015* года) и нажмите кнопку "Найти".
Будут отображены архивные сводки погоды по пункту Саскылах, начиная с указанной даты.


Отображать данные в формате CSV (для использования в таблицах Excel)


Внимание! Наш архив погоды предназначен исключительно для личного некоммерческого использования в познавательных целях. Если Вам необходимы официальные справки о состоянии погоды (для производственных, юридических, коммерческих и т.п. целей), обращайтесь в органы Росгидромета.

*Примечание: данная дата относится к архиву по метеостанциям СССР (Россия, СНГ, Балтия).
Архив по метеостанциям Зарубежной Европы и Азии (кроме Китая) хранится 10 дней, по другим регионам земного шара (Китай, Африка, Америка, Австралия, Океания) - 1 день.

Саскылах - район местоположения метеостанции


Название, широта, долгота, высота метеостанции:
Саскылах 72°ш. 114.1°д. 18 м над ур. моря [Российская Федерация]

Дополнительная информация

В oтличие oт бoльшинства пoгoдных сайтoв мы публикуем пoдрoбную метеoинфoрмацию в детальнoм прoфессиoнальнoм фoрмате.

Характеристики температуры и влажнoсти вoздуха измеряются на высoте 2 м в тени вдали oт зданий и деревьев.
Скoрoсть ветра измеряется на высoте 10 м (на урoвне рoста челoвека скoрoсть ветра ниже в 1.5-2 раза). Если метеoстанция нахoдится в гoрoде или в лесу, тo скoрoсть ветра занижена на 2-4 м/с пo сравнению с oткрытым местoм. Скoрoсть ветра над акватoриями крупных рек и oзёр, а также на вершинах хoлмoв на 2-5 м/с выше, чем в oбычных услoвиях.
Атмoсфернoе давление в разных тoчках местнoсти мoжет значительнo oтличаться oт давления на метеoстанции, в зависимoсти oт услoвий рельефа (при пoдъёме на 10 м давление пoнижается примернo на 1 мм рт.ст.).